Location: Branche des Alpilles
(43.6087°N, 4.6976°E)
Time: 11:38:11
(UTC+00:00)

Cosmos 1151 Rocket - Pass Details

Date: 30 November 2020
Orbit: 593 x 615 km, 82.5° (Epoch: 25 January)

Event Time Altitude Azimuth Distance (km) Brightness Sun altitude
Rises 16:52:30 0° 174° (S) 2,832 6.7 -8.4°
Reaches altitude 10° 16:54:44 10° 170° (S) 1,931 5.8 -8.8°
Maximum altitude 16:58:53 52° 94° (E) 747 3.1 -9.5°
Drops below altitude 10° 17:03:02 10° 18° (NNE) 1,938 5.2 -10.2°
Sets 17:05:17 0° 14° (NNE) 2,844 6.1 -10.6°
